• In Lithuania
  • List of Countries
  • For 7 days
  • Water Temperature
  • Satellite Maps
  • Weather Map
  • Weather Widgets
  • user-avatar
    Login

    Hourly Weather Szeged

    Today, 21 September, Friday

    Time Temperature Precipitation Wind Pressure Humidity
    00:00 +22°C° 0 mm 1 mps 756 mmHg 44%
    01:00 +21°C° 0 mm 1 mps 756 mmHg 46%
    02:00 +21°C° 0 mm 1 mps 756 mmHg 47%
    03:00 +20°C° 0 mm 1 mps 756 mmHg 49%
    04:00 +20°C° 0 mm 1 mps 756 mmHg 50%
    05:00 +19°C° 0 mm 2 mps 756 mmHg 48%
    06:00 +20°C° 0 mm 2 mps 756 mmHg 47%
    07:00 +21°C° 0 mm 2 mps 756 mmHg 45%
    08:00 +24°C° 0 mm 3 mps 756 mmHg 39%
    09:00 +26°C° 0 mm 3 mps 756 mmHg 32%
    10:00 +29°C° 0 mm 4 mps 756 mmHg 26%
    11:00 +30°C° 0 mm 4 mps 755 mmHg 24%
    12:00 +32°C° 0 mm 4 mps 755 mmHg 22%
    13:00 +33°C° 0 mm 4 mps 754 mmHg 20%
    14:00 +33°C° 0 mm 4 mps 754 mmHg 21%
    15:00 +32°C° 0 mm 4 mps 754 mmHg 21%
    16:00 +32°C° 0 mm 4 mps 753 mmHg 21%
    17:00 +29°C° 0 mm 4 mps 753 mmHg 25%
    18:00 +27°C° 0 mm 3 mps 753 mmHg 30%
    19:00 +25°C° 0 mm 3 mps 753 mmHg 34%
    20:00 +24°C° 0 mm 3 mps 753 mmHg 37%
    21:00 +24°C° 0 mm 3 mps 754 mmHg 39%
    22:00 +22°C° 0 mm 3 mps 754 mmHg 42%
    23:00 +22°C° 0 mm 3 mps 754 mmHg 44%

    Tomorrow, 22 September, Saturday

    Time Temperature Precipitation Wind Pressure Humidity
    00:00 +21°C° 0 mm 3 mps 754 mmHg 45%
    01:00 +20°C° 0 mm 3 mps 754 mmHg 47%
    02:00 +20°C° 0 mm 3 mps 754 mmHg 49%
    03:00 +20°C° 0 mm 2 mps 754 mmHg 50%
    04:00 +20°C° 0 mm 2 mps 754 mmHg 52%
    05:00 +20°C° 0 mm 3 mps 754 mmHg 52%
    06:00 +21°C° 0 mm 3 mps 755 mmHg 53%
    07:00 +22°C° 0 mm 4 mps 755 mmHg 53%
    08:00 +23°C° 0 mm 5 mps 756 mmHg 48%
    09:00 +24°C° 0 mm 6 mps 756 mmHg 42%
    10:00 +26°C° 0 mm 8 mps 757 mmHg 37%
    11:00 +24°C° 0 mm 8 mps 757 mmHg 36%
    12:00 +22°C° 0 mm 8 mps 757 mmHg 35%
    13:00 +21°C° 0 mm 8 mps 758 mmHg 34%
    14:00 +20°C° 0 mm 8 mps 758 mmHg 37%
    15:00 +18°C° 0 mm 8 mps 759 mmHg 39%
    16:00 +17°C° 0 mm 7 mps 759 mmHg 42%
    17:00 +16°C° 0 mm 6 mps 760 mmHg 46%
    18:00 +15°C° 0 mm 5 mps 760 mmHg 50%
    19:00 +14°C° 0 mm 4 mps 760 mmHg 54%
    20:00 +14°C° 0 mm 4 mps 761 mmHg 55%
    21:00 +13°C° 0 mm 4 mps 761 mmHg 56%
    22:00 +13°C° 0 mm 4 mps 762 mmHg 57%
    23:00 +13°C° 0 mm 3 mps 762 mmHg 58%

    Day after tomorrow, 23 September, Sunday

    Time Temperature Precipitation Wind Pressure Humidity
    00:00 +13°C° 0 mm 3 mps 762 mmHg 58%
    01:00 +13°C° 0 mm 3 mps 762 mmHg 59%
    02:00 +13°C° 0 mm 3 mps 762 mmHg 61%
    03:00 +14°C° 0 mm 2 mps 762 mmHg 63%
    04:00 +14°C° 0 mm 2 mps 762 mmHg 65%
    05:00 +14°C° 0 mm 2 mps 762 mmHg 64%
    06:00 +14°C° 0 mm 2 mps 762 mmHg 64%
    07:00 +15°C° 0 mm 1 mps 762 mmHg 64%
    08:00 +16°C° 0 mm 2 mps 762 mmHg 58%
    09:00 +18°C° 0 mm 2 mps 762 mmHg 51%
    10:00 +19°C° 0 mm 2 mps 762 mmHg 44%
    11:00 +20°C° 0 mm 2 mps 762 mmHg 40%
    12:00 +23°C° 0 mm 1 mps 761 mmHg 36%
    13:00 +24°C° 0 mm 1 mps 761 mmHg 32%
    14:00 +24°C° 0 mm 1 mps 760 mmHg 32%
    15:00 +24°C° 0 mm 1 mps 760 mmHg 32%
    16:00 +24°C° 0 mm 1 mps 759 mmHg 32%
    17:00 +23°C° 0 mm 2 mps 759 mmHg 35%
    18:00 +20°C° 0 mm 2 mps 759 mmHg 37%
    19:00 +19°C° 0 mm 2 mps 759 mmHg 40%
    20:00 +19°C° 0 mm 3 mps 759 mmHg 41%
    21:00 +18°C° 0 mm 3 mps 758 mmHg 41%
    22:00 +18°C° 0 mm 4 mps 758 mmHg 41%
    23:00 +18°C° 0 mm 4 mps 757 mmHg 41%

    24 September, Monday

    Time Temperature Precipitation Wind Pressure Humidity
    00:00 +18°C° 0 mm 4 mps 756 mmHg 41%
    01:00 +17°C° 0 mm 5 mps 755 mmHg 41%
    02:00 +17°C° 0 mm 5 mps 754 mmHg 42%
    03:00 +17°C° 0 mm 5 mps 753 mmHg 43%
    04:00 +17°C° 0 mm 6 mps 752 mmHg 43%
    05:00 +19°C° 0 mm 6 mps 752 mmHg 44%
    06:00 +20°C° 0 mm 6 mps 751 mmHg 45%
    07:00 +21°C° 0 mm 6 mps 750 mmHg 45%
    08:00 +23°C° 0 mm 7 mps 751 mmHg 44%
    09:00 +27°C° 0 mm 7 mps 751 mmHg 43%
    10:00 +31°C° 0 mm 8 mps 751 mmHg 41%
    11:00 +27°C° 1.4 mm 8 mps 751 mmHg 48%
    12:00 +22°C° 1.4 mm 9 mps 752 mmHg 54%
    13:00 +18°C° 1.4 mm 10 mps 752 mmHg 60%
    14:00 +18°C° 0.1 mm 8 mps 754 mmHg 56%
    15:00 +18°C° 0.1 mm 7 mps 755 mmHg 52%
    16:00 +17°C° 0.1 mm 6 mps 756 mmHg 48%
    17:00 +16°C° 0.1 mm 5 mps 757 mmHg 48%
    18:00 +17°C° 0.1 mm 4 mps 759 mmHg 49%
    19:00 +16°C° 0.1 mm 3 mps 760 mmHg 49%
    20:00 +14°C° 0 mm 4 mps 761 mmHg 48%
    21:00 +14°C° 0 mm 5 mps 761 mmHg 47%
    22:00 +14°C° 0 mm 5 mps 762 mmHg 46%
    23:00 +13°C° 0 mm 6 mps 762 mmHg 47%

    25 September, Tuesday

    Time Temperature Precipitation Wind Pressure Humidity
    00:00 +11°C° 0 mm 6 mps 762 mmHg 48%
    01:00 +10°C° 0 mm 6 mps 763 mmHg 50%
    02:00 +10°C° 0 mm 6 mps 763 mmHg 51%
    03:00 +9°C° 0 mm 6 mps 763 mmHg 53%
    04:00 +9°C° 0 mm 6 mps 764 mmHg 55%
    05:00 +9°C° 0 mm 6 mps 764 mmHg 54%
    06:00 +9°C° 0 mm 7 mps 765 mmHg 53%
    07:00 +10°C° 0 mm 7 mps 765 mmHg 52%
    08:00 +11°C° 0 mm 7 mps 765 mmHg 46%
    09:00 +12°C° 0 mm 7 mps 766 mmHg 39%
    10:00 +14°C° 0 mm 7 mps 766 mmHg 32%
    11:00 +15°C° 0 mm 7 mps 766 mmHg 30%
    12:00 +15°C° 0 mm 7 mps 766 mmHg 28%
    13:00 +16°C° 0 mm 7 mps 765 mmHg 27%
    14:00 +16°C° 0 mm 6 mps 765 mmHg 27%
    15:00 +16°C° 0 mm 6 mps 765 mmHg 27%
    16:00 +15°C° 0 mm 6 mps 765 mmHg 27%
    17:00 +14°C° 0 mm 5 mps 766 mmHg 29%
    18:00 +12°C° 0 mm 4 mps 766 mmHg 32%
    19:00 +11°C° 0 mm 3 mps 766 mmHg 35%
    20:00 +10°C° 0 mm 3 mps 766 mmHg 37%
    21:00 +10°C° 0 mm 3 mps 766 mmHg 38%
    22:00 +9°C° 0 mm 3 mps 766 mmHg 40%
    23:00 +9°C° 0 mm 3 mps 766 mmHg 42%

    26 September, Wednesday

    Time Temperature Precipitation Wind Pressure Humidity
    00:00 +9°C° 0 mm 3 mps 766 mmHg 44%
    01:00 +8°C° 0 mm 3 mps 765 mmHg 46%
    02:00 +9°C° 0 mm 3 mps 765 mmHg 47%
    03:00 +8°C° 0 mm 4 mps 765 mmHg 48%
    04:00 +8°C° 0 mm 4 mps 764 mmHg 49%
    05:00 +8°C° 0 mm 5 mps 764 mmHg 50%
    06:00 +9°C° 0 mm 6 mps 764 mmHg 51%
    07:00 +9°C° 0 mm 7 mps 764 mmHg 52%
    08:00 +10°C° 0.3 mm 7 mps 764 mmHg 52%
    09:00 +11°C° 0.3 mm 7 mps 764 mmHg 52%
    10:00 +12°C° 0.3 mm 8 mps 764 mmHg 52%
    11:00 +15°C° 0 mm 7 mps 764 mmHg 44%
    12:00 +16°C° 0 mm 7 mps 764 mmHg 36%
    13:00 +17°C° 0 mm 6 mps 764 mmHg 28%
    14:00 +17°C° 0 mm 6 mps 764 mmHg 29%
    15:00 +17°C° 0 mm 6 mps 764 mmHg 30%
    16:00 +16°C° 0 mm 6 mps 764 mmHg 31%
    17:00 +15°C° 0 mm 5 mps 764 mmHg 37%
    18:00 +13°C° 0 mm 4 mps 765 mmHg 42%
    19:00 +12°C° 0 mm 3 mps 765 mmHg 47%
    20:00 +12°C° 0 mm 2 mps 765 mmHg 50%
    21:00 +12°C° 0 mm 2 mps 766 mmHg 53%
    22:00 +10°C° 0 mm 2 mps 766 mmHg 56%
    23:00 +10°C° 0 mm 2 mps 766 mmHg 59%
    Show more